TimeCST,TemperatureF,Dew PointF,Humidity,Sea Level PressureIn,VisibilityMPH,Wind Direction,Wind SpeedMPH,Gust SpeedMPH,PrecipitationIn,Events,Conditions,WindDirDegrees,DateUTC
12:15 AM,17.6,8.6,68,30.39,10.0,North,-9999.0,-,N/A,,Clear,0,2012-11-27 06:15:00
12:35 AM,15.8,10.4,79,30.39,10.0,North,-9999.0,-,N/A,,Clear,0,2012-11-27 06:35:00
12:55 AM,14.0,8.6,79,30.40,10.0,North,-9999.0,-,N/A,,Clear,0,2012-11-27 06:55:00
1:15 AM,14.0,8.6,79,30.40,10.0,North,-9999.0,-,N/A,,Clear,0,2012-11-27 07:15:00
1:55 AM,14.0,8.6,79,30.40,10.0,North,-9999.0,-,N/A,,Clear,0,2012-11-27 07:55:00
2:15 AM,14.0,8.6,79,30.40,10.0,North,-9999.0,-,N/A,,Clear,0,2012-11-27 08:15:00
2:35 AM,12.2,8.6,85,30.39,10.0,North,-9999.0,-,N/A,,Clear,0,2012-11-27 08:35:00
2:55 AM,12.2,8.6,85,30.40,10.0,North,-9999.0,-,N/A,,Clear,0,2012-11-27 08:55:00
3:15 AM,12.2,8.6,85,30.40,10.0,North,-9999.0,-,N/A,,Clear,0,2012-11-27 09:15:00
3:55 AM,12.2,8.6,85,30.38,10.0,North,-9999.0,-,N/A,,Clear,0,2012-11-27 09:55:00
4:15 AM,12.2,8.6,85,30.38,10.0,North,-9999.0,-,N/A,,Clear,0,2012-11-27 10:15:00
4:35 AM,12.2,8.6,85,30.38,10.0,North,-9999.0,-,N/A,,Clear,0,2012-11-27 10:35:00
4:55 AM,12.2,8.6,85,30.38,10.0,North,-9999.0,-,N/A,,Clear,0,2012-11-27 10:55:00
5:15 AM,12.2,8.6,85,30.38,10.0,North,-9999.0,-,N/A,,Clear,0,2012-11-27 11:15:00
5:35 AM,12.2,8.6,85,30.38,10.0,North,-9999.0,-,N/A,,Clear,0,2012-11-27 11:35:00
6:15 AM,12.2,8.6,85,30.38,10.0,North,-9999.0,-,N/A,,Clear,0,2012-11-27 12:15:00
6:35 AM,12.2,8.6,85,30.38,10.0,North,-9999.0,-,N/A,,Clear,0,2012-11-27 12:35:00
6:55 AM,12.2,8.6,85,30.38,10.0,North,-9999.0,-,N/A,,Clear,0,2012-11-27 12:55:00
7:15 AM,14.0,8.6,79,30.38,10.0,North,-9999.0,-,N/A,,Clear,0,2012-11-27 13:15:00
7:35 AM,14.0,8.6,79,30.38,10.0,North,-9999.0,-,N/A,,Clear,0,2012-11-27 13:35:00
7:55 AM,15.8,10.4,79,30.37,10.0,North,-9999.0,-,N/A,,Clear,0,2012-11-27 13:55:00
8:15 AM,15.8,10.4,79,30.38,10.0,North,-9999.0,-,N/A,,Clear,0,2012-11-27 14:15:00
8:35 AM,17.6,10.4,73,30.38,10.0,North,-9999.0,-,N/A,,Clear,0,2012-11-27 14:35:00
8:55 AM,19.4,10.4,68,30.38,10.0,North,-9999.0,-,N/A,,Clear,0,2012-11-27 14:55:00
9:35 AM,21.2,12.2,68,30.38,10.0,North,-9999.0,-,N/A,,Clear,0,2012-11-27 15:35:00
9:55 AM,23.0,12.2,63,30.37,10.0,North,-9999.0,-,N/A,,Clear,0,2012-11-27 15:55:00
10:15 AM,26.6,14.0,59,30.37,10.0,North,-9999.0,-,N/A,,Clear,0,2012-11-27 16:15:00
10:35 AM,26.6,12.2,55,30.36,10.0,North,-9999.0,-,N/A,,Clear,0,2012-11-27 16:35:00
10:55 AM,26.6,12.2,55,30.35,10.0,South,5.8,-,N/A,,Clear,180,2012-11-27 16:55:00
11:15 AM,26.6,12.2,55,30.34,10.0,South,9.2,-,N/A,,Clear,190,2012-11-27 17:15:00
11:35 AM,26.6,12.2,55,30.33,10.0,South,9.2,-,N/A,,Clear,180,2012-11-27 17:35:00
11:55 AM,28.4,12.2,51,30.31,10.0,South,5.8,-,N/A,,Clear,170,2012-11-27 17:55:00
12:15 PM,26.6,10.4,51,30.30,10.0,South,9.2,-,N/A,,Clear,190,2012-11-27 18:15:00
12:35 PM,28.4,12.2,51,30.29,10.0,South,8.1,-,N/A,,Clear,190,2012-11-27 18:35:00
12:55 PM,30.2,12.2,47,30.27,10.0,SSW,10.4,-,N/A,,Clear,200,2012-11-27 18:55:00
1:15 PM,30.2,12.2,47,30.26,10.0,SSW,9.2,-,N/A,,Clear,210,2012-11-27 19:15:00
1:35 PM,30.2,10.4,44,30.25,10.0,South,9.2,-,N/A,,Clear,190,2012-11-27 19:35:00
1:55 PM,32.0,12.2,44,30.24,10.0,South,4.6,-,N/A,,Clear,180,2012-11-27 19:55:00
2:15 PM,32.0,10.4,41,30.23,10.0,South,8.1,-,N/A,,Scattered Clouds,180,2012-11-27 20:15:00
2:35 PM,32.0,10.4,41,30.23,10.0,South,8.1,-,N/A,,Overcast,180,2012-11-27 20:35:00
2:55 PM,32.0,10.4,41,30.22,10.0,SSW,5.8,-,N/A,,Overcast,200,2012-11-27 20:55:00
3:15 PM,32.0,10.4,41,30.23,10.0,SSW,5.8,-,N/A,,Overcast,200,2012-11-27 21:15:00
3:35 PM,32.0,10.4,41,30.23,10.0,South,6.9,-,N/A,,Overcast,190,2012-11-27 21:35:00
3:55 PM,32.0,10.4,41,30.22,10.0,SSW,6.9,-,N/A,,Overcast,200,2012-11-27 21:55:00
4:15 PM,32.0,10.4,41,30.21,10.0,South,3.5,-,N/A,,Overcast,180,2012-11-27 22:15:00
4:35 PM,32.0,10.4,41,30.21,10.0,South,8.1,-,N/A,,Overcast,170,2012-11-27 22:35:00
4:55 PM,32.0,12.2,44,30.21,10.0,Calm,Calm,-,N/A,,Overcast,0,2012-11-27 22:55:00
5:15 PM,32.0,12.2,44,30.21,10.0,South,3.5,-,N/A,,Overcast,170,2012-11-27 23:15:00
6:35 PM,32.0,12.2,44,30.21,10.0,Calm,Calm,-,N/A,,Overcast,0,2012-11-28 00:35:00
6:55 PM,32.0,14.0,48,30.21,10.0,Calm,Calm,-,N/A,,Overcast,0,2012-11-28 00:55:00
7:15 PM,32.0,14.0,48,30.22,10.0,Calm,Calm,-,N/A,,Overcast,0,2012-11-28 01:15:00
7:35 PM,32.0,14.0,48,30.22,10.0,Calm,Calm,-,N/A,,Overcast,0,2012-11-28 01:35:00
7:55 PM,32.0,14.0,48,30.22,10.0,South,3.5,-,N/A,,Overcast,190,2012-11-28 01:55:00
8:35 PM,32.0,14.0,48,30.22,10.0,Calm,Calm,-,N/A,,Overcast,0,2012-11-28 02:35:00
8:55 PM,32.0,14.0,48,30.22,10.0,Calm,Calm,-,N/A,,Overcast,0,2012-11-28 02:55:00
9:15 PM,32.0,14.0,48,30.21,10.0,Calm,Calm,-,N/A,,Overcast,0,2012-11-28 03:15:00
9:35 PM,32.0,14.0,48,30.21,10.0,Calm,Calm,-,N/A,,Overcast,0,2012-11-28 03:35:00
9:55 PM,32.0,14.0,48,30.21,10.0,Calm,Calm,-,N/A,,Overcast,0,2012-11-28 03:55:00
10:15 PM,32.0,14.0,48,30.22,10.0,SW,3.5,-,N/A,,Overcast,220,2012-11-28 04:15:00
10:35 PM,32.0,14.0,48,30.22,10.0,SW,5.8,-,N/A,,Overcast,230,2012-11-28 04:35:00
10:55 PM,32.0,14.0,48,30.22,10.0,Calm,Calm,-,N/A,,Overcast,0,2012-11-28 04:55:00
11:35 PM,32.0,14.0,48,30.23,10.0,WSW,4.6,-,N/A,,Clear,250,2012-11-28 05:35:00
11:55 PM,28.4,14.0,55,30.23,10.0,West,4.6,-,N/A,,Clear,270,2012-11-28 05:55:00